Date String (YYYY-MM-DD hh:mm:ss) UTC,Instrument flags,Ambient pressure (hPa),Sample flow (lpm),Bypass flow (lpm),Sample temperature (°C),Ambient temperature (°C),ASC tube jacket temperature (°C),LED temperature (°C),Box temperature (°C),Sample RH (%),Span deviation,Mass concentration (μg/m³),Mass concentration (μg/m³),Mass concentration (μg/m³)
DateTimeUTC,F1_M11,P_M11,Q1_M11,Q2_M11,T1_M11,T2_M11,T3_M11,T4_M11,T5_M11,U1_M11,ZSPAN_M11,X0_M11,X2_M11,X1_M11
2023-05-08 09:00:00,,0830.7,4.99,0.00,30.3,28.6,00.0,38.8,31.7,15.2,0000.0,0008.26,0003.27,0002.00
2023-05-08 09:01:00,,0830.7,5.00,0.00,30.3,28.6,00.0,38.8,31.7,15.4,0000.0,0008.66,0003.33,0002.06
2023-05-08 09:02:00,,0830.7,4.99,0.00,30.3,28.6,00.0,38.7,31.7,15.5,0000.0,0009.02,0003.37,0002.12
2023-05-08 09:03:00,,0830.7,5.01,0.00,30.3,28.7,00.0,38.7,31.7,15.5,0000.0,0009.32,0003.40,0002.17
2023-05-08 09:04:00,,0830.7,5.02,0.00,30.3,28.7,00.0,38.7,31.7,15.4,0000.0,0009.37,0003.43,0002.21
2023-05-08 09:05:00,,0830.7,4.99,0.00,30.3,28.7,00.0,38.7,31.7,15.4,0000.0,0008.76,0003.43,0002.25
2023-05-08 09:06:00,,0830.7,4.99,0.00,30.3,28.7,00.0,38.7,31.7,15.5,0000.0,0008.77,0003.42,0002.28
2023-05-08 09:07:00,,0830.7,4.99,0.00,30.3,28.7,00.0,38.7,31.7,15.7,0000.0,0009.68,0003.45,0002.34
2023-05-08 09:08:00,,0830.7,5.02,0.00,30.3,28.7,00.0,38.7,31.7,15.6,0000.0,0009.89,0003.49,0002.41
2023-05-08 09:09:00,,0830.8,5.00,0.00,30.3,28.7,00.0,38.7,31.8,15.7,0000.0,0009.99,0003.51,0002.47
2023-05-08 09:10:00,,0830.8,4.99,0.00,30.3,28.7,00.0,38.7,31.8,15.9,0000.0,0010.91,0003.57,0002.57
2023-05-08 09:11:00,,0830.8,5.00,0.00,30.3,28.7,00.0,38.7,31.8,16.1,0000.0,0010.80,0003.62,0002.66
2023-05-08 09:12:00,,0830.8,5.01,0.00,30.3,28.6,00.0,38.7,31.8,16.3,0000.0,0011.73,0003.63,0002.74
2023-05-08 09:13:00,,0830.8,5.00,0.00,30.2,28.6,00.0,38.7,31.7,16.4,0000.0,0012.07,0003.71,0002.83
2023-05-08 09:14:00,,0830.8,5.00,0.00,30.3,28.6,00.0,38.7,31.7,16.4,0000.0,0012.15,0003.80,0002.93
2023-05-08 09:15:00,,0830.8,5.00,0.00,30.3,28.6,00.0,38.7,31.7,15.7,0000.0,0012.44,0003.88,0002.97
2023-05-08 09:16:00,,0830.7,5.00,0.00,30.2,28.6,00.0,38.7,31.7,15.0,0000.0,0013.86,0003.92,0002.93
2023-05-08 09:17:00,,0830.7,5.00,0.00,30.2,28.6,00.0,38.7,31.6,14.8,0000.0,0016.22,0003.94,0002.88
2023-05-08 09:18:00,,0830.7,4.99,0.00,30.2,28.6,00.0,38.7,31.7,14.8,0000.0,0017.04,0003.91,0002.82
2023-05-08 09:19:00,,0830.7,5.00,0.00,30.2,28.6,00.0,38.7,31.7,15.0,0000.0,0017.12,0003.89,0002.76
2023-05-08 09:20:00,,0830.7,5.01,0.00,30.2,28.6,00.0,38.7,31.7,15.1,0000.0,0017.56,0003.90,0002.71
2023-05-08 09:21:00,,0830.7,5.00,0.00,30.2,28.6,00.0,38.7,31.7,15.2,0000.0,0017.27,0003.88,0002.61
2023-05-08 09:22:00,,0830.8,4.99,0.00,30.2,28.5,00.0,38.7,31.7,15.7,0000.0,0018.03,0003.85,0002.58
2023-05-08 09:23:00,,0830.8,4.99,0.00,30.2,28.5,00.0,38.7,31.7,16.0,0000.0,0017.90,0003.86,0002.57
2023-05-08 09:24:00,,0830.7,5.01,0.00,30.2,28.5,00.0,38.7,31.7,16.2,0000.0,0016.86,0003.87,0002.57
2023-05-08 09:25:00,,0830.7,5.02,0.00,30.2,28.5,00.0,38.6,31.6,16.2,0000.0,0016.66,0003.83,0002.54
2023-05-08 09:26:00,,0830.7,4.99,0.00,30.2,28.5,00.0,38.6,31.6,16.3,0000.0,0016.55,0003.83,0002.54
2023-05-08 09:27:00,,0830.7,4.99,0.00,30.2,28.5,00.0,38.6,31.7,16.4,0000.0,0015.94,0003.83,0002.64
2023-05-08 09:28:00,,0830.7,4.99,0.00,30.2,28.5,00.0,38.6,31.6,16.7,0000.0,0014.21,0003.88,0002.81
2023-05-08 09:29:00,,0830.7,5.01,0.00,30.1,28.5,00.0,38.6,31.6,16.8,0000.0,0012.59,0003.96,0002.99
2023-05-08 09:30:00,,0830.7,5.01,0.00,30.1,28.5,00.0,38.6,31.6,17.1,0000.0,0011.72,0004.12,0003.15
2023-05-08 09:31:00,,0830.7,4.98,0.00,30.1,28.5,00.0,38.6,31.6,17.1,0000.0,0011.43,0004.24,0003.25
2023-05-08 09:32:00,,0830.7,4.99,0.00,30.1,28.5,00.0,38.6,31.6,16.8,0000.0,0011.28,0004.31,0003.34
2023-05-08 09:33:00,,0830.7,5.01,0.00,30.1,28.5,00.0,38.6,31.5,16.7,0000.0,0010.24,0004.36,0003.40
2023-05-08 09:34:00,,0830.7,5.01,0.00,30.1,28.5,00.0,38.6,31.5,16.7,0000.0,0009.81,0004.43,0003.44
2023-05-08 09:35:00,,0830.7,4.99,0.00,30.1,28.5,00.0,38.6,31.5,16.8,0000.0,0009.55,0004.48,0003.49
2023-05-08 09:36:00,,0830.6,5.00,0.00,30.1,28.4,00.0,38.6,31.5,16.9,0000.0,0009.52,0004.55,0003.51
2023-05-08 09:37:00,,0830.6,5.00,0.00,30.1,28.4,00.0,38.6,31.4,16.9,0000.0,0009.39,0004.58,0003.55
2023-05-08 09:38:00,,0830.6,4.99,0.00,30.1,28.4,00.0,38.5,31.4,16.8,0000.0,0009.37,0004.61,0003.58
2023-05-08 09:39:00,,0830.6,5.00,0.00,30.1,28.4,00.0,38.6,31.5,16.9,0000.0,0009.34,0004.61,0003.59
2023-05-08 09:40:00,,0830.7,5.02,0.00,30.1,28.4,00.0,38.5,31.5,16.8,0000.0,0008.91,0004.63,0003.60
2023-05-08 09:41:00,,0830.7,5.00,0.00,30.1,28.4,00.0,38.5,31.5,16.7,0000.0,0008.96,0004.60,0003.59
2023-05-08 09:42:00,,0830.7,4.99,0.00,30.1,28.4,00.0,38.5,31.5,16.9,0000.0,0008.86,0004.51,0003.58
2023-05-08 09:43:00,,0830.7,5.01,0.00,30.1,28.4,00.0,38.5,31.5,16.9,0000.0,0009.12,0004.48,0003.59
2023-05-08 09:44:00,,0830.7,5.00,0.00,30.1,28.4,00.0,38.5,31.5,16.9,0000.0,0009.13,0004.46,0003.60
2023-05-08 09:45:00,,0830.6,4.99,0.00,30.1,28.4,00.0,38.5,31.5,16.7,0000.0,0009.17,0004.47,0003.61
2023-05-08 09:46:00,,0830.7,4.99,0.00,30.1,28.4,00.0,38.5,31.5,16.6,0000.0,0009.21,0004.46,0003.60
2023-05-08 09:47:00,,0830.6,5.01,0.00,30.1,28.4,00.0,38.5,31.5,16.4,0000.0,0009.31,0004.41,0003.57
2023-05-08 09:48:00,,0830.6,5.00,0.00,30.1,28.4,00.0,38.5,31.5,16.4,0000.0,0009.61,0004.34,0003.54
2023-05-08 09:49:00,,0830.6,5.01,0.00,30.1,28.4,00.0,38.5,31.4,16.3,0000.0,0009.52,0004.29,0003.51
2023-05-08 09:50:00,,0830.7,4.99,0.00,30.1,28.4,00.0,38.5,31.4,16.4,0000.0,0009.55,0004.27,0003.48
2023-05-08 09:51:00,,0830.7,5.00,0.00,30.1,28.4,00.0,38.5,31.5,16.4,0000.0,0009.46,0004.23,0003.47
2023-05-08 09:52:00,,0830.7,5.01,0.00,30.1,28.4,00.0,38.5,31.4,16.3,0000.0,0009.24,0004.21,0003.45
2023-05-08 09:53:00,,0830.7,5.00,0.00,30.1,28.4,00.0,38.5,31.4,16.3,0000.0,0009.40,0004.20,0003.42
2023-05-08 09:54:00,,0830.7,5.01,0.00,30.1,28.4,00.0,38.5,31.4,16.2,0000.0,0009.68,0004.25,0003.38
2023-05-08 09:55:00,,0830.8,5.01,0.00,30.1,28.4,00.0,38.5,31.4,16.3,0000.0,0009.91,0004.27,0003.36
2023-05-08 09:56:00,,0830.8,5.00,0.00,30.1,28.4,00.0,38.5,31.4,16.2,0000.0,0009.81,0004.20,0003.32
2023-05-08 09:57:00,,0830.8,4.99,0.00,30.1,28.4,00.0,38.5,31.4,16.0,0000.0,0009.76,0004.11,0003.29
2023-05-08 09:58:00,,0830.7,5.00,0.00,30.0,28.3,00.0,38.5,31.4,15.5,0000.0,0009.61,0003.98,0003.23
2023-05-08 09:59:00,,0830.7,5.01,0.00,30.0,28.3,00.0,38.5,31.4,15.7,0000.0,0009.05,0003.96,0003.19
